When you browse on this site, cookies collect data to enhance your experience and personalize the content and advertising you see.
Visit our Privacy Policy to learn more. By continuing to use the site, you agree to this use of cookies and data.
  • în România
  • Lista ţărilor
  • Pe 7 zile
  • Temperatura apei
  • Meteo pe hartă
  • Widget-uri
  • user-avatar
    Intrare

    Meteo pe oră la Ahwaz

    Astăzi, 23 Februarie, Duminică

    Timp Temperatura Precipitaţii Vânt Presiune Umiditate
    00:00 +19°C° 0 mm 3 m/s 763 mmHg 47%
    01:00 +19°C° 0 mm 3 m/s 763 mmHg 48%
    02:00 +18°C° 0 mm 3 m/s 763 mmHg 50%
    03:00 +18°C° 0 mm 3 m/s 763 mmHg 52%
    04:00 +18°C° 0 mm 3 m/s 763 mmHg 53%
    05:00 +17°C° 0 mm 2 m/s 763 mmHg 54%
    06:00 +17°C° 0 mm 2 m/s 763 mmHg 55%
    07:00 +19°C° 0 mm 1 m/s 763 mmHg 51%
    08:00 +20°C° 0 mm 1 m/s 763 mmHg 47%
    09:00 +22°C° 0 mm 1 m/s 764 mmHg 43%
    10:00 +23°C° 0 mm 1 m/s 764 mmHg 38%
    11:00 +25°C° 0 mm 2 m/s 764 mmHg 33%
    12:00 +26°C° 0 mm 2 m/s 764 mmHg 28%
    13:00 +27°C° 0 mm 3 m/s 763 mmHg 25%
    14:00 +28°C° 0 mm 3 m/s 762 mmHg 23%
    15:00 +29°C° 0 mm 3 m/s 761 mmHg 21%
    16:00 +28°C° 0 mm 3 m/s 761 mmHg 23%
    17:00 +27°C° 0 mm 3 m/s 761 mmHg 25%
    18:00 +26°C° 0 mm 3 m/s 762 mmHg 27%
    19:00 +26°C° 0 mm 3 m/s 762 mmHg 27%
    20:00 +25°C° 0 mm 3 m/s 762 mmHg 28%
    21:00 +24°C° 0 mm 2 m/s 762 mmHg 29%
    22:00 +24°C° 0 mm 2 m/s 762 mmHg 30%
    23:00 +23°C° 0 mm 2 m/s 761 mmHg 31%

    Mâine, 24 Februarie, Luni

    Timp Temperatura Precipitaţii Vânt Presiune Umiditate
    00:00 +23°C° 0 mm 2 m/s 761 mmHg 32%
    01:00 +23°C° 0 mm 2 m/s 761 mmHg 32%
    02:00 +23°C° 0 mm 2 m/s 760 mmHg 33%
    03:00 +21°C° 0 mm 2 m/s 760 mmHg 34%
    04:00 +21°C° 0 mm 2 m/s 760 mmHg 34%
    05:00 +20°C° 0 mm 2 m/s 760 mmHg 35%
    06:00 +20°C° 0 mm 2 m/s 760 mmHg 36%
    07:00 +21°C° 0 mm 2 m/s 761 mmHg 33%
    08:00 +22°C° 0 mm 3 m/s 761 mmHg 31%
    09:00 +25°C° 0 mm 3 m/s 761 mmHg 28%
    10:00 +25°C° 0 mm 3 m/s 761 mmHg 28%
    11:00 +26°C° 0 mm 3 m/s 761 mmHg 28%
    12:00 +27°C° 0 mm 3 m/s 760 mmHg 28%
    13:00 +27°C° 0 mm 4 m/s 760 mmHg 27%
    14:00 +28°C° 0 mm 5 m/s 759 mmHg 27%
    15:00 +28°C° 0 mm 5 m/s 758 mmHg 27%
    16:00 +27°C° 0.1 mm 5 m/s 758 mmHg 30%
    17:00 +26°C° 0.1 mm 4 m/s 758 mmHg 34%
    18:00 +25°C° 0.1 mm 3 m/s 758 mmHg 38%
    19:00 +23°C° 0.7 mm 4 m/s 758 mmHg 42%
    20:00 +23°C° 0.7 mm 5 m/s 758 mmHg 46%
    21:00 +22°C° 0.7 mm 5 m/s 758 mmHg 50%
    22:00 +22°C° 0.8 mm 5 m/s 758 mmHg 53%
    23:00 +21°C° 0.8 mm 4 m/s 758 mmHg 56%

    Poimâine, 25 Februarie, Marţi

    Timp Temperatura Precipitaţii Vânt Presiune Umiditate
    00:00 +21°C° 0.8 mm 4 m/s 758 mmHg 58%
    01:00 +21°C° 0.4 mm 4 m/s 757 mmHg 61%
    02:00 +21°C° 0.4 mm 4 m/s 757 mmHg 64%
    03:00 +20°C° 0.4 mm 4 m/s 756 mmHg 67%
    04:00 +20°C° 0 mm 4 m/s 756 mmHg 68%
    05:00 +20°C° 0 mm 4 m/s 756 mmHg 69%
    06:00 +20°C° 0 mm 4 m/s 756 mmHg 70%
    07:00 +21°C° 0 mm 6 m/s 757 mmHg 65%
    08:00 +22°C° 0 mm 8 m/s 757 mmHg 60%
    09:00 +23°C° 0 mm 10 m/s 757 mmHg 55%
    10:00 +24°C° 0 mm 10 m/s 757 mmHg 52%
    11:00 +26°C° 0 mm 10 m/s 756 mmHg 49%
    12:00 +27°C° 0 mm 11 m/s 756 mmHg 46%
    13:00 +27°C° 0 mm 10 m/s 755 mmHg 48%
    14:00 +27°C° 0 mm 9 m/s 754 mmHg 49%
    15:00 +27°C° 0 mm 8 m/s 753 mmHg 51%
    16:00 +26°C° 0 mm 7 m/s 753 mmHg 54%
    17:00 +24°C° 0 mm 6 m/s 753 mmHg 57%
    18:00 +23°C° 0 mm 5 m/s 753 mmHg 60%
    19:00 +23°C° 0 mm 5 m/s 753 mmHg 63%
    20:00 +22°C° 0 mm 5 m/s 753 mmHg 66%
    21:00 +22°C° 0 mm 6 m/s 753 mmHg 68%
    22:00 +22°C° 0 mm 6 m/s 753 mmHg 70%
    23:00 +21°C° 0 mm 6 m/s 753 mmHg 72%

    26 Februarie, Miercuri

    Timp Temperatura Precipitaţii Vânt Presiune Umiditate
    00:00 +21°C° 0 mm 5 m/s 753 mmHg 73%
    01:00 +20°C° 0.5 mm 5 m/s 753 mmHg 75%
    02:00 +17°C° 0.5 mm 5 m/s 752 mmHg 77%
    03:00 +16°C° 0.5 mm 5 m/s 752 mmHg 79%
    04:00 +16°C° 0.2 mm 5 m/s 752 mmHg 77%
    05:00 +16°C° 0.2 mm 5 m/s 752 mmHg 75%
    06:00 +16°C° 0.2 mm 5 m/s 753 mmHg 73%
    07:00 +17°C° 0 mm 6 m/s 754 mmHg 62%
    08:00 +18°C° 0 mm 7 m/s 754 mmHg 52%
    09:00 +20°C° 0 mm 8 m/s 755 mmHg 41%
    10:00 +18°C° 0.2 mm 8 m/s 756 mmHg 47%
    11:00 +17°C° 0.2 mm 8 m/s 756 mmHg 54%
    12:00 +17°C° 0.2 mm 8 m/s 756 mmHg 60%
    13:00 +17°C° 0.3 mm 7 m/s 756 mmHg 59%
    14:00 +17°C° 0.3 mm 6 m/s 756 mmHg 58%
    15:00 +17°C° 0.3 mm 5 m/s 757 mmHg 57%
    16:00 +17°C° 0 mm 5 m/s 757 mmHg 59%
    17:00 +17°C° 0 mm 5 m/s 758 mmHg 61%
    18:00 +16°C° 0 mm 5 m/s 759 mmHg 63%
    19:00 +17°C° 0 mm 4 m/s 759 mmHg 64%
    20:00 +16°C° 0 mm 3 m/s 760 mmHg 66%
    21:00 +16°C° 0 mm 2 m/s 761 mmHg 67%
    22:00 +16°C° 0 mm 2 m/s 761 mmHg 68%
    23:00 +16°C° 0 mm 2 m/s 761 mmHg 69%

    27 Februarie, Joi

    Timp Temperatura Precipitaţii Vânt Presiune Umiditate
    00:00 +15°C° 0 mm 2 m/s 761 mmHg 70%
    01:00 +15°C° 0 mm 2 m/s 761 mmHg 70%
    02:00 +14°C° 0 mm 3 m/s 761 mmHg 71%
    03:00 +14°C° 0 mm 3 m/s 761 mmHg 71%
    04:00 +13°C° 0 mm 3 m/s 761 mmHg 71%
    05:00 +14°C° 0 mm 2 m/s 761 mmHg 71%
    06:00 +14°C° 0 mm 2 m/s 762 mmHg 71%
    07:00 +15°C° 0 mm 2 m/s 762 mmHg 66%
    08:00 +16°C° 0 mm 2 m/s 762 mmHg 61%
    09:00 +19°C° 0 mm 1 m/s 763 mmHg 55%
    10:00 +19°C° 0 mm 2 m/s 762 mmHg 51%
    11:00 +20°C° 0 mm 2 m/s 762 mmHg 47%
    12:00 +21°C° 0 mm 2 m/s 762 mmHg 43%
    13:00 +21°C° 0 mm 2 m/s 762 mmHg 41%
    14:00 +22°C° 0 mm 3 m/s 761 mmHg 40%
    15:00 +24°C° 0 mm 3 m/s 761 mmHg 38%
    16:00 +22°C° 0 mm 3 m/s 761 mmHg 40%
    17:00 +21°C° 0 mm 3 m/s 761 mmHg 42%
    18:00 +21°C° 0 mm 3 m/s 760 mmHg 45%
    19:00 +20°C° 0 mm 3 m/s 761 mmHg 46%
    20:00 +20°C° 0 mm 3 m/s 761 mmHg 47%
    21:00 +19°C° 0 mm 3 m/s 761 mmHg 48%
    22:00 +18°C° 0 mm 3 m/s 761 mmHg 50%
    23:00 +18°C° 0 mm 2 m/s 761 mmHg 52%

    28 Februarie, Vineri

    Timp Temperatura Precipitaţii Vânt Presiune Umiditate
    00:00 +18°C° 0 mm 2 m/s 760 mmHg 54%
    01:00 +17°C° 0 mm 2 m/s 760 mmHg 54%
    02:00 +17°C° 0 mm 2 m/s 760 mmHg 55%
    03:00 +17°C° 0 mm 3 m/s 760 mmHg 56%
    04:00 +16°C° 0 mm 2 m/s 760 mmHg 58%
    05:00 +16°C° 0 mm 2 m/s 760 mmHg 59%
    06:00 +16°C° 0 mm 2 m/s 760 mmHg 61%
    07:00 +17°C° 0 mm 3 m/s 760 mmHg 58%
    08:00 +18°C° 0 mm 3 m/s 760 mmHg 55%
    09:00 +19°C° 0 mm 3 m/s 761 mmHg 51%
    10:00 +20°C° 0 mm 3 m/s 760 mmHg 47%
    11:00 +21°C° 0 mm 3 m/s 760 mmHg 43%
    12:00 +24°C° 0 mm 3 m/s 759 mmHg 38%
    13:00 +24°C° 0 mm 3 m/s 759 mmHg 36%
    14:00 +25°C° 0 mm 3 m/s 759 mmHg 34%
    15:00 +25°C° 0 mm 3 m/s 758 mmHg 32%
    16:00 +24°C° 0 mm 3 m/s 758 mmHg 35%
    17:00 +22°C° 0 mm 3 m/s 758 mmHg 37%
    18:00 +22°C° 0 mm 3 m/s 758 mmHg 40%
    19:00 +21°C° 0 mm 2 m/s 758 mmHg 42%
    20:00 +20°C° 0 mm 2 m/s 758 mmHg 45%
    21:00 +20°C° 0 mm 2 m/s 759 mmHg 47%
    22:00 +19°C° 0 mm 2 m/s 759 mmHg 48%
    23:00 +19°C° 0 mm 2 m/s 758 mmHg 50%
    Arată mai mult